SB KEPS @ AMSAT $ORB09160.N 2Line Orbital Elements 09160.AMSAT
HR AMSAT ORBITAL ELEMENTS FOR AMATEUR SATELLITES IN NASA FORMAT FROM WA5QGD FORT WORTH,TX June 9, 2009 Send Subscribe/unsubscribe to KEPS at http://www.amsat.org/mailman/listinfo/keps BID: ORB09160.N
DECODE 2-LINE ELSETS WITH THE FOLLOWING KEY: 1 AAAAAU 00 0 0 BBBBB.BBBBBBBB .CCCCCCCC 00000-0 00000-0 0 DDDZ 2 AAAAA EEE.EEEE FFF.FFFF GGGGGGG HHH.HHHH III.IIII JJ.JJJJJJJJKKKKKZ KEY: A-CATALOGNUM B-EPOCHTIME C-DECAY D-ELSETNUM E-INCLINATION F-RAAN G-ECCENTRICITY H-ARGPERIGEE I-MNANOM J-MNMOTION K-ORBITNUM Z-CHECKSUM
TO ALL RADIO AMATEURS BT
AO-07 1 07530U 74089B 09160.58693488 -.00000027 00000-0 10000-3 0 4999 2 07530 101.4264 185.5430 0011451 283.2624 076.7169 12.53575789581765 FO-29 1 24278U 96046B 09159.79435357 -.00000035 00000-0 92742-6 0 00704 2 24278 098.5540 034.9574 0350740 012.3166 348.6274 13.52943419632619 SO-33 1 25509U 98061B 09160.22645358 -.00000074 00000-0 -29157-4 0 4712 2 25509 031.4337 097.5081 0355016 268.8481 087.1473 14.28252859554696 RS-22 1 27939U 03042A 09159.85636821 .00000096 00000-0 27485-4 0 08110 2 27939 097.9459 035.0304 0013979 154.4464 205.7419 14.63321411304356 VO-52 1 28650U 05017B 09160.35033788 .00000450 00000-0 63432-4 0 2441 2 28650 097.7445 222.1913 0028077 057.0497 303.3422 14.81593267221485 AO-16 1 20439U 90005D 09159.95804628 .00000001 00000-0 15802-4 0 06244 2 20439 098.2767 128.7343 0010460 190.8300 169.2670 14.31825823011975 LO-19 1 20442U 90005G 09160.71506900 .00000048 00000-0 33175-4 0 5429 2 20442 098.2405 136.7495 0011957 184.4634 175.6451 14.32061640 12245 AO-27 1 22825U 93061C 09159.60487817 -.00000001 00000-0 16204-4 0 02636 2 22825 098.4370 113.2992 0007426 291.0005 069.0380 14.29266834818687 IO-26 1 22826U 93061D 09160.78648506 -.00000009 00000-0 13188-4 0 9893 2 22826 098.4293 115.1944 0007992 284.5946 075.4349 14.29518900818959 GO-32 1 25397U 98043D 09159.77645956 -.00000156 00000-0 -51263-4 0 09134 2 25397 098.3258 182.5671 0000318 308.7497 051.3636 14.23158943566936 NO-44 1 26931U 01043C 09160.79841529 .00000081 00000-0 63980-4 0 1889 2 26931 067.0529 083.3803 0005484 271.5552 088.4934 14.29558716401521 SO-50 1 27607U 02058C 09160.77986587 -.00000268 00000-0 -19533-4 0 9050 2 27607 064.5602 047.5872 0068011 207.4197 152.3261 14.71439307347582 CO-55 1 27844U 03031E 09160.73783787 .00000030 00000-0 34266-4 0 5970 2 27844 098.7120 170.0082 0010218 159.5541 200.6034 14.20641144308209 CO-57 1 27848U 03031J 09160.00992685 .00000021 00000-0 30336-4 0 5438 2 27848 098.7135 168.3520 0009662 166.2155 193.9286 14.20442716308064 AO-51 1 28375U 04025K 09160.60239766 .00000012 00000-0 16095-4 0 4084 2 28375 098.0518 170.6484 0083823 147.4309 213.2090 14.40644237259862 CO-56 1 28941U 06005C 09160.64089696 .00074664 44680-5 25631-3 0 1490 2 28941 098.1354 333.6568 0087717 160.9915 199.4569 15.83617954186053 GENESAT1 1 29655U 06058C 09159.63582989 .00011915 00000-0 11822-3 0 7273 2 29655 040.0246 236.8943 0001617 007.7242 352.3600 15.65478441141131 CP3 1 31129U 07012N 09160.73038829 .00000091 00000-0 31991-4 0 9843 2 31129 097.9885 214.1628 0101916 309.0000 050.2138 14.52136175113805 CO-65 1 32785U 08021C 09159.34475686 .00000231 00000-0 36213-4 0 03891 2 32785 097.9459 223.3844 0016173 062.5907 297.6950 14.81488381060137 KKS-1 1 33493U 09002B 09160.80076684 .00000241 00000-0 38352-4 0 4580 2 33493 098.0564 272.9772 0018741 266.0322 093.8755 14.80680056 20371 SOHLA-1 1 33496U 09002E 09160.76011517 .00000016 00000-0 10851-4 0 4193 2 33496 098.0375 270.1836 0005854 316.6836 043.3916 14.69436165 20183 NOAA-10 1 16969U 86073A 09159.60520856 .00000010 00000-0 22102-4 0 06428 2 16969 098.6907 186.2992 0011611 219.5101 140.5241 14.27387980182285 NOAA-11 1 19531U 88089A 09159.72144250 .00000172 00000-0 11176-3 0 06559 2 19531 098.7848 249.8048 0012213 130.1440 230.0803 14.14897566068328 NOAA-12 1 21263U 91032A 09159.96571630 .00000021 00000-0 27861-4 0 01656 2 21263 098.7708 168.0227 0012352 165.3764 194.7775 14.25581533939228 MET-3/5 1 21655U 91056A 09159.94457649 .00000051 00000-0 10000-3 0 06731 2 21655 082.5524 212.3149 0012758 197.0024 163.0673 13.17019367856547 MET-2/21 1 22782U 93055A 09159.64614228 .00000063 00000-0 43850-4 0 4785 2 22782 082.5476 188.7824 0022927 014.9134 345.2718 13.83635632796425 OKEAN-4 1 23317U 94066A 09159.79890566 -.00000049 00000-0 -90829-5 0 09320 2 23317 082.5378 342.3153 0023448 035.4348 324.8410 14.82700493791120 NOAA-14 1 23455U 94089A 09159.74874141 .00000077 00000-0 64544-4 0 06469 2 23455 098.9096 237.4583 0009077 209.7503 150.3142 14.13764132744736 NOAA-15 1 25338U 98030A 09159.76620689 .00000067 00000-0 47149-4 0 09575 2 25338 098.5833 149.1580 0011785 083.2590 276.9896 14.24764798575574 RESURS 1 25394U 98043A 09159.72946239 -.00000035 00000-0 26033-5 0 2321 2 25394 098.3409 192.5078 0000486 216.7551 143.3595 14.24183567567194 FENGYUN1 1 25730U 99025A 09159.96756479 -.00000499 00000-0 -26806-3 0 08289 2 25730 098.7558 130.3802 0019411 244.0997 115.8172 14.07925865519163 OKEAN-0 1 25860U 99039A 09159.47989610 .00000023 00000-0 10784-4 0 06995 2 25860 097.7847 141.0060 0000982 111.0103 249.1206 14.73575854531869 NOAA-16 1 26536U 00055A 09159.72138762 -.00000030 00000-0 90287-5 0 04341 2 26536 099.1757 163.1829 0009764 309.0572 050.9735 14.12519944449101 NOAA-17 1 27453U 02032A 09159.77999706 .00000062 00000-0 45172-4 0 04420 2 27453 098.4851 219.1394 0012350 144.3037 215.8986 14.24068303361550 NOAA-18 1 28654U 05018A 09159.75206716 .00000255 00000-0 16588-3 0 09316 2 28654 098.9077 103.0573 0014855 030.5234 329.6789 14.11263634208764 NOAA-19 1 33591U 09005A 09159.80114837 -.00000170 00000-0 -70575-4 0 01340 2 33591 098.7467 105.7813 0013037 267.8112 092.1547 14.10961993017256 HUBBLE 1 20580U 90037B 09157.14058997 .00000282 00000-0 87905-5 0 04046 2 20580 028.4691 174.3963 0003622 167.2659 192.8159 15.00806741848196 ISS 1 25544U 98067A 09159.87555255 .00017868 00000-0 12917-3 0 00002 2 25544 051.6405 349.5574 0009226 090.8365 050.5612 15.73534044604645 CO-58 1 28895U 05043F 09160.66116324 .00000279 00000-0 67848-4 0 3235 2 28895 098.0615 051.4899 0018218 015.7674 344.4129 14.59774242192632 FALCON 1 30776U 07006E 09159.39832820 .00000275 00000-0 22946-4 0 5857 2 30776 035.4325 152.7327 0001020 249.6488 110.4118 15.03251510123777 MAST 1 31126U 07012K 09159.77361224 .00000050 00000-0 22242-4 0 06155 2 31126 097.9900 214.9643 0093781 306.5286 052.7287 14.53499456113811 CAPE1 1 31130U 07012P 09159.87304414 .00000056 00000-0 24064-4 0 06227 2 31130 097.9927 213.2625 0101499 311.7433 047.5102 14.52061910113485 COMPASS 1 32787U 08021E 09160.33535350 .00000186 00000-0 30436-4 0 3787 2 32787 097.9428 224.2265 0017019 058.0515 302.2349 14.81609494 60288 AAUSAT2 1 32788U 08021F 09159.62858473 .00000385 00000-0 55514-4 0 03855 2 32788 097.9415 223.5811 0016704 063.2621 297.0301 14.81733428060183 DO-64 1 32789U 08021G 09159.71769118 .00000256 00000-0 39271-4 0 04000 2 32789 097.9479 223.8265 0016868 061.0182 299.2713 14.81715742060190 CO-66 1 32791U 08021J 09160.71499669 .00000045 00000-0 12591-4 0 3715 2 32791 097.9454 224.6347 0017469 056.6777 303.6097 14.81439754 60308 RS-30 1 32953U 08025A 09160.38227105 .00000010 00000-0 00000 0 0 3254 2 32953 082.5016 261.4636 0019091 191.8284 168.2350 12.43001582 47425 TACSAT-3 1 35001U 09028A 09160.55327280 .00002296 00000-0 63964-4 0 224 2 35001 040.4558 286.3044 0023447 104.3275 256.0144 15.38809715 3176 PHARMSAT 1 35002U 09028B 09160.47803088 .00002222 00000-0 60472-4 0 221 2 35002 040.4691 286.6217 0026470 107.3445 253.0290 15.39583379 3154 HAWKSAT1 1 35003U 09028C 09160.53930637 .00001806 00000-0 49844-4 0 238 2 35003 040.4709 286.2124 0027203 112.2188 248.1517 15.39846457 3170 CP6 1 35004U 09028D 09159.75958012 .00004360 00000-0 11122-3 0 176 2 35004 040.4624 290.8454 0026886 106.3331 254.0441 15.40000209 3041 AEROCUB3 1 35005U 09028E 09160.02147868 .00004650 00000-0 11898-3 0 170 2 35005 040.4757 289.3372 0026564 105.6785 254.6964 15.39815331 3087 /EX